Overview Statistics Trail Chart Weather Telemetry Raw packets
 

This is the latest recevied weather packets stored in our database for station/object KI5NXU. If no packets are shown the sender has not sent any weather packets the latest 10 day(s).

<< 107 108 109 110 111 112 113 >>
Time Temp. Humidity Pressure Rain* Wind** Luminosity Snow
1787585303 34.44° C 40% 1014.7 hPa 0 mm - 551 W/m² -
1787585003 33.89° C 40% 1014.9 hPa 0 mm - 524 W/m² -
1787584698 33.89° C 41% 1014.7 hPa 0 mm - 511 W/m² -
1787584396 33.89° C 41% 1014.9 hPa 0 mm - 501 W/m² -
1787584096 33.33° C 42% 1015 hPa 0 mm - 495 W/m² -
1787583796 33.33° C 42% 1014.9 hPa 0 mm - 472 W/m² -
1787583491 33.33° C 42% 1015.1 hPa 0 mm - 415 W/m² -
1787583189 32.78° C 43% 1015.3 hPa 0 mm - 396 W/m² -
1787582886 33.33° C 43% 1015 hPa 0 mm - 361 W/m² -
1787582580 32.78° C 43% 1015 hPa 0 mm - 326 W/m² -
1787582275 32.78° C 42% 1014.8 hPa 0 mm - 307 W/m² -
1787581975 32.78° C 43% 1014.9 hPa 0 mm - 289 W/m² -
1787581670 32.78° C 42% 1014.8 hPa 0 mm - 275 W/m² -
1787581365 32.22° C 42% 1014.5 hPa 0 mm - 246 W/m² -
1787581065 32.22° C 41% 1014.8 hPa 0 mm - 226 W/m² -
1787580761 32.22° C 43% 1014.8 hPa 0 mm - 227 W/m² -
1787580457 31.67° C 43% 1014.6 hPa 0 mm - 207 W/m² -
1787580157 31.67° C 43% 1014.7 hPa 0 mm - 197 W/m² -
1787579852 31.67° C 44% 1014.6 hPa 0 mm - 169 W/m² -
1787579547 31.11° C 44% 1014.7 hPa 0 mm - 169 W/m² -
1787579241 31.11° C 44% 1014.7 hPa 0 mm - 145 W/m² -
1787578937 30.56° C 45% 1014.7 hPa 0 mm - 151 W/m² -
1787578633 30.56° C 45% 1014.5 hPa 0 mm - 130 W/m² -
1787578332 30.56° C 47% 1014.6 hPa 0 mm - 104 W/m² -
1787578028 30° C 46% 1014.5 hPa 0 mm - 95 W/m² -

* Rain latest hour (hover to see other rain measurements)
** Current wind speed in m/s (hover to see current wind gust speed)